Find Local Weather

World > North America > United States > California

Los Angeles, California Regional Weather

Lat: 34.04N, Lon: 118.3W
Wx Zone: CAZ041
Feedback
Expires:201806200100;;802719
ASUS46 KLOX 200003
RWRCA 

SOUTHERN CALIFORNIA WEATHER ROUNDUP
NATIONAL WEATHER SERVICE OXNARD CALIFORNIA
500 PM PDT TUE JUN 19 2018

NOTE: "FAIR" INDICATES FEW OR NO CLOUDS BELOW 12,000 FEET WITH NO 
SIGNIFICANT WEATHER AND/OR OBSTRUCTIONS TO VISIBILITY.

  -  STATIONS PRECEEDED BY AN ASTERISK (*) ARE NOT NWS OR FAA 
     STATIONS AND ARE NOT SUBJECT TO NWS AND FAA QUALITY CONTROL.


CAZ041-042-087-200100-
LA AND ORANGE COUNTY COASTAL AREAS

  
CITY           SKY/WX    TMP DP  RH WIND       PRES   REMARKS
L.A. DOWNTOWN  SUNNY     72  58  61 VRB7      29.91F                  
L.A. AIRPORT   MOSUNNY   69  57  65 W14       29.93F                  
LONG BEACH     SUNNY     76  57  51 W10       29.91F                  

CITY           SKY/WX    TMP DP  RH WIND       PRES   REMARKS
AVALON           N/A     68 N/A N/A N3          N/A                   
FULLERTON      SUNNY     75  59  57 S9        29.90F                  
*GETTY CENTER    N/A     68  57  68 SW9         N/A                   
HAWTHORNE      SUNNY     69  57  65 W13       29.92F                  
*LEO CARRILLO    N/A     65  58  77 W12         N/A                   
*LOS ALAMITOS  SUNNY     71  58  62 S13       29.91F                  
*REDONDO BEACH   N/A     69  57  65 W10       29.92S                  
SANTA ANA      MOSUNNY   72  58  61 S9        29.92F                  
STA MONICA APT MOSUNNY   66  57  72 SW10G18   29.92F                  
TORRANCE       SUNNY     70  57  64 W18       29.91F                  
*UCLA            N/A     64  55  72 SW7       29.89F                  

$$


SKY/WX - Weather  TMP - Temperature  DP - Dewpoint  RH - Relative Humidity
WIND - Wind Direction/Speed PRES - Barometric Pressure